Location: Unspecified
(35.7250°N, 0.0000°E)
Time: 20:27:46
(UTC+00:00)

Vanguard 1 Rocket - Pass Details

Date: 25 June 2019
Orbit: 651 x 4225 km, 34.3° (Epoch: 16 July)

Event Time Altitude Azimuth Distance (km) Brightness Sun altitude
Rises 16:10:17 0° 242° (WSW) 8,342 13.0 35.6°
Reaches altitude 10° 16:16:31 10° 240° (WSW) 7,067 12.8 34.4°
Maximum altitude 16:38:10 70° 163° (SSE) 2,728 10.2 30.0°
Drops below altitude 10° 16:49:20 10° 82° (E) 3,955 10.2 27.8°
Sets 16:51:47 0° 80° (E) 4,620 10.5 27.3°
